Location: Holbach
(51.5399°N, 10.6036°E)
Time: 10:32:09
(UTC+00:00)

ATLAS CENTAUR R/B - Pass Details

Date: 23 January 2021
Orbit: 471 x 674 km, 64.6° (Epoch: 24 February)

Event Time Altitude Azimuth Distance (km) Brightness Sun altitude
Rises 04:18:44 0° 166° (SSE) 2,526 4.9 -26.0°
Reaches altitude 10° 04:22:17 10° 129° (SE) 1,637 4.4 -25.4°
Maximum altitude 04:23:20 11° 112° (ESE) 1,573 4.5 -25.3°
Drops below altitude 10° 04:24:23 10° 95° (E) 1,637 4.8 -25.1°
Sets 04:27:55 0° 59° (ENE) 2,527 5.6 -24.6°
